Find WHDW 07-02

NORAD ID: 65107 Int'l Des: 2025-168 Owner: ZXW Country: CN Constellation: xingwang operational
LEOCIRCULAR

实时位置

正在加载3D地球...

关于 WHDW 07-02

正在加载描述...

即将过境

Passes for default location (London). Set your location on the main map for personalized predictions.

高度历史

Loading altitude history...

两行轨道根数

1 65107U 25168B 26105.30252761 -.00000085 00000-0 82854-4 0 9996
2 65107 49.9990 191.3660 0008948 258.8420 101.1446 13.29314103 34321
Epoch: Apr 15, 2026 • Age: 6 hours

当前状态

高度 1154.2 km
速度 7.28 km/s
星下点 22.94°N, 175.14°E
发射日期 Aug 4, 2025
运行时间 0.6 years
类型 other

技术详情

分类 Payload
质量 800.00 kg
干质量 800.00 kg
总质量 800.00 kg
长度 3.00 m
直径 1.00 m
跨度 10.00 m
形状 Box + 2 Pan
制造商 YINNT
平台类型 Xingwang Y
阶段状态 In Orbit
所有者/国家 ZXW/CN

Most Searched